User: anonymous   Login
Location: Unspecified
(0.0000°N, 0.0000°E)
Time: 00:49:19
(UTC+02:00)
Language:

YAOGAN 3 - Orbit

View from above orbital plane
View from above orbital plane
View from above satellite
View from above satellite

Ground track
Ground track

The orbit data is extracted from the following two-line orbital elements,

1 32289U 07055A   14298.21379045  .00001623  00000-0  21097-3 0  7112
2 32289 097.9480 289.2022 0001107 094.3917 265.7428 14.82066470375782
Epoch (UTC): 25 October 2014 05:07:51
Eccentricity: 0.0001107
inclination: 97.9480°
perigee height: 622 km
apogee height: 623 km
right ascension of ascending node: 289.2022°
argument of perigee: 94.3917°
revolutions per day: 14.82066470
mean anomaly at epoch: 265.7428°
orbit number at epoch: 37578

The dashed part of the orbit path shows where the satellite is in the earth's shadow,  

DLR